Location: Alladorf
(49.9620°N, 11.3790°E)
Time: 21:01:20
(UTC+00:00)

FALCON 9 DEB - Pass Details

Date: 29 November 2020
Orbit: 372 x 393 km, 53.0° (Epoch: 24 January)

Event Time Altitude Azimuth Distance (km) Brightness Sun altitude
Exits shadow 04:53:40 39° 221° (SW) 609 3.6 -17.8°
Maximum altitude 04:54:39 66° 153° (SSE) 440 3.2 -17.6°
Drops below altitude 10° 04:57:56 10° 71° (ENE) 1,476 6.7 -17.1°
Sets 04:59:58 0° 68° (ENE) 2,317 7.7 -16.8°
